Flag Weather past 2 weeks in Santa Clarita, California, U.S.A.

Now
67 °F

Passing clouds.


Feels Like: 67 °F
Forecast: 48 / 68 °F
Wind: 6 mph from Southeast

Location: Van Nuys Airport

Current Time: Nov 22, 2014 at 5:35:26 PM

Latest Report: Nov 22, 2014 at 4:51 PM


Visibility: 10 mi

Pressure: 29.99 "Hg

Humidity: 45%

Dew point: 45 °F

Location of Santa ClaritaLocation

Historic Weather in Santa Clarita — Graph

°F

Santa Clarita temperature yesterday

Maximum temperature yesterday: 74 °F (at 1:51 PM)
Minimum temperature yesterday: 53 °F (at 3:51 AM)
Average temperature yesterday: 62 °F

Past Weeks' High & Low Weather Summary

 TemperatureHumidityPressure
High92 °F (Nov 8, 2:51 PM)90% (Nov 13, 9:51 PM)30.16 "Hg (Nov 13, 9:51 PM)
Low47 °F (Nov 22, 5:51 AM)2% (Nov 16, 1:51 PM)29.78 "Hg (Nov 9, 3:51 PM)
Average63 °F49%30.00 "Hg
* Reported Nov 7 3:51 PM — Nov 22 3:51 PM, Santa Clarita, Weather by CustomWeather, © 2014

Note: Actual official high and low records may vary slightly from our data, if they occured in-between our weather recording intervals... More about our weather records

Advertising

Santa Clarita weather history for previous 24 hours

 ConditionsComfort  
Time TempWeatherWind HumidityBarometerVisibility
3:51 PM
Nov 22
70 °FScattered clouds.7 mph39%29.99 "Hg10 mi
2:51 PM71 °FSunny.12 mph38%29.98 "Hg10 mi
1:51 PM72 °FSunny.9 mph38%30.00 "Hg10 mi
12:51 PM71 °FSunny.3 mph32%30.02 "Hg10 mi
11:51 AM71 °FSunny.No wind29%30.05 "Hg10 mi
10:51 AM67 °FSunny.No wind33%30.08 "Hg10 mi
9:51 AM64 °FSunny.No wind41%30.10 "Hg10 mi
8:51 AM60 °FSunny.No wind44%30.10 "Hg10 mi
7:51 AM53 °FSunny.No wind59%30.08 "Hg10 mi
6:51 AM49 °FSunny.3 mph71%30.08 "Hg10 mi
5:51 AM47 °FClear.No wind74%30.06 "Hg10 mi
4:51 AM49 °FClear.No wind71%30.06 "Hg10 mi
3:51 AM50 °FClear.No wind71%30.06 "Hg10 mi
2:51 AM51 °FClear.No wind71%30.05 "Hg10 mi
1:51 AM52 °FClear.No wind69%30.06 "Hg10 mi
12:51 AM54 °FClear.No wind62%30.05 "Hg10 mi
11:51 PM
Nov 21
53 °FClear.3 mph61%30.05 "Hg10 mi
10:51 PM56 °FClear.No wind49%30.03 "Hg10 mi
9:51 PM60 °FClear.5 mph42%30.02 "Hg10 mi
8:51 PM60 °FClear.6 mph41%30.03 "Hg10 mi
7:51 PM63 °FClear.7 mph38%30.01 "Hg10 mi
6:51 PM63 °FClear.5 mph40%29.98 "Hg10 mi
5:51 PM64 °FClear.13 mph37%29.97 "Hg10 mi
Weather by CustomWeather, © 2014

See weather overviewHow to use our weather pages